Location: Goettingen
(51.5300°N, 9.9433°E)
Time: 22:41:19
(UTC+01:00)

ISS - Pass Details

Date: 03 December 2024
Orbit: 411 x 421 km, 51.6° (Epoch: 03 December)

Event Time Altitude Azimuth Distance (km) Brightness Sun altitude
Rises 16:53:53 0° 284° (WNW) 2,373 0.9 -6.2°
Reaches altitude 10° 16:56:07 10° 274° (W) 1,507 0.1 -6.5°
Maximum altitude 16:59:10 32° 210° (SSW) 750 -1.8 -6.9°
Drops below altitude 10° 17:02:13 10° 145° (SE) 1,501 -1.0 -7.3°
Sets 17:04:26 0° 135° (SE) 2,361 -0.1 -7.6°
